sat.trackr.live / text

‹ back to catalog

STARLINK-36375

NORAD 67920 · 2026-036S

PAYLOAD ACTIVE UNKNOWN

§ Identity

Operator
Country
US
Launch date
2026-02-22
Launch site
AFETR
Launch vehicle
Mass (kg)
RCS (m²)

Purposes: comms

External: N2YO · Heavens-Above · Gunter

§ Orbital elements

Epoch: 2026-05-24T18:28:19.019712Z

Period
94.27 min
Inclination
43.0017°
Eccentricity
0.0001339
Mean motion
15.27591227 rev/d
Perigee alt
482.1 km
Apogee alt
483.9 km
Semi-major
6,861.2 km
B*
4.5106e-4
RAAN
175.9399°
Arg perigee
276.7679°
Mean anomaly
83.3020°
Rev number
1,535

§ Raw data

STARLINK-363751 67920U 26036S   26144.76966458  .00012175  00000+0  45106-3 0  99932 67920  43.0017 175.9399 0001339 276.7679  83.3020 15.27591227 15355

JSON: /api/v1/satellites/67920 · /tle

For live sub-satellite position, see the globe view (requires WebGL).

§ Visibility from observer

Set your observer location to see the next 7 days of passes ≥ 10°. The values pass through the URL so the page stays shareable.

No JS? Fill the form by hand. The geolocation button needs JavaScript.